This is the latest recevied weather packets stored in our database for station/object DM4SB-4. If no packets are shown the sender has not sent any weather packets the latest 1 day(s).
| Time | Temp. | Humidity | Pressure | Rain* | Wind** | Luminosity | Snow |
|---|---|---|---|---|---|---|---|
| 1777973433 | 21.67° C | 52% | 1005.3 hPa | 0 mm | 0 m/s | - | - |
| 1777972833 | 21.11° C | 55% | 1005.4 hPa | 0 mm | 0 m/s | - | - |
| 1777972233 | 21.67° C | 58% | 1005.4 hPa | 0 mm | 0 m/s | - | - |
| 1777971634 | 20.56° C | 63% | 1005.5 hPa | 0 mm | 0 m/s | - | - |
| 1777971034 | 19.44° C | 65% | 1005.5 hPa | 0 mm | 0 m/s | - | - |
| 1777970433 | 19.44° C | 64% | 1005.6 hPa | 0 mm | 0 m/s | - | - |
| 1777969833 | 18.89° C | 69% | 1005.8 hPa | 0 mm | 0 m/s | - | - |
| 1777969233 | 18.89° C | 69% | 1005.7 hPa | 0 mm | 0 m/s | - | - |
| 1777968634 | 18.33° C | 70% | 1005.8 hPa | 0 mm | 0 m/s | - | - |
| 1777968033 | 17.78° C | 69% | 1005.7 hPa | 0 mm | 0 m/s | - | - |
| 1777967434 | 18.33° C | 66% | 1005.8 hPa | 0 mm | 0 m/s | - | - |
| 1777966842 | 18.89° C | 66% | 1006.1 hPa | 0 mm | 0 m/s | - | - |
| 1777966233 | 18.33° C | 65% | 1006 hPa | 0 mm | 0 m/s | - | - |
| 1777965633 | 17.78° C | 70% | 1006.1 hPa | 0 mm | 0 m/s | - | - |
| 1777965034 | 18.33° C | 71% | 1006 hPa | 0 mm | 0 m/s | - | - |
| 1777964434 | 17.22° C | 74% | 1006.2 hPa | 0 mm | 0 m/s | - | - |
| 1777963833 | 16.67° C | 79% | 1006.2 hPa | 0 mm | 0 m/s | - | - |
| 1777963233 | 16.11° C | 78% | 1006.1 hPa | 0 mm | 0 m/s | - | - |
| 1777962633 | 15.56° C | 78% | 1006.3 hPa | 0 mm | 0 m/s | - | - |
| 1777962034 | 15° C | 82% | 1006.2 hPa | 0 mm | 0 m/s | - | - |
| 1777961434 | 13.89° C | 86% | 1006.3 hPa | 0 mm | 0 m/s | - | - |
| 1777960833 | 12.22° C | 88% | 1006.3 hPa | 0 mm | 0 m/s | - | - |
| 1777960233 | 10.56° C | 95% | 1006.6 hPa | 0 mm | 0 m/s | - | - |
| 1777959633 | 10° C | 97% | 1006.5 hPa | 0 mm | 0 m/s | - | - |
| 1777959033 | 9.44° C | 97% | 1006.6 hPa | 0 mm | 0 m/s | - | - |
* Rain latest hour (hover to see other rain measurements)
** Current wind speed in m/s (hover to see current wind gust speed)